Retour au catalogue

CZ-6A DEB

ActifPO
NORAD 60711·DEBRIS·🇨🇳 China

Lancé Aug 6, 2024 depuis Taiyuan Satellite Launch Center

Loading…

Prochains Passages (prochaines 24 heures)

TLE

FraisSource: Space-Track

Époque: Sep 14, 2026, 10:14 UTC

1 60711U 24140DQ  26257.42665369  .00000809  00000-0  25026-3 0  9994
2 60711  88.8456 247.7932 0064649  56.8119 303.9259 14.39121996109702

Suivez CZ-6A DEB en temps réel avec AllMySat

Download on the App Store